Wind_Speed
16 17 17 18 19 20 21 21 22 22 22 22 22 22 23 23 24 24 23 23 22 22 24 26 29 31 32 34 35 37 39 40 40 41 43 43 43 42 43 43 42 41 41 40 39 39 38 36 35 35 34 32 29 28 29 28 25 23 21 20 17 14 12 14 16 16 17 15 13 14 11 9 8 6 7 7 9 13 16 18 20 21 21 21 22 22 20 16
17 18 19 19 20 21 21 22 23 23 24 24 24 24 24 25 25 26 26 26 25 25 24 25 27 30 32 34 35 37 38 40 41 42 44 44 43 43 43 43 43 43 42 41 41 40 39 38 36 36 35 33 29 28 30 29 27 26 22 19 18 14 12 15 16 16 16 15 14 14 11 10 7 4 6 6 7 12 15 18 19 19 21 20 21 22 20 18
19 19 20 20 21 22 22 23 24 24 25 25 26 26 26 26 27 27 28 28 28 28 27 27 27 29 31 34 35 37 38 40 41 44 45 44 43 43 44 44 44 44 44 43 42 42 40 39 38 37 37 33 29 29 30 29 28 27 23 19 18 15 16 17 17 18 17 15 14 12 9 8 6 5 8 4 6 13 16 18 17 18 20 20 21 21 20 19
21 22 22 23 23 24 25 25 26 26 27 27 28 28 28 29 29 29 29 30 30 30 30 29 29 29 31 33 35 37 38 39 42 45 45 44 44 44 44 45 45 45 46 45 43 42 42 41 40 39 39 36 31 29 29 30 29 28 26 24 20 16 18 20 18 18 18 16 15 12 9 8 7 7 8 4 6 15 15 17 16 16 19 19 20 21 21 20
24 25 26 27 27 28 29 29 30 30 30 31 31 31 32 32 32 32 32 32 32 32 33 32 32 32 31 33 35 37 38 39 43 45 45 45 45 45 45 46 46 47 47 46 44 44 43 43 42 42 41 38 34 30 30 31 29 30 30 29 25 20 18 20 18 17 16 16 16 14 12 10 8 7 7 4 9 14 13 15 15 15 18 19 20 21 21 21
26 27 29 30 31 32 32 33 33 34 34 35 35 35 36 36 36 36 36 35 35 35 35 35 35 34 34 34 35 36 38 40 44 45 45 45 46 46 47 47 47 47 47 47 46 45 45 44 44 44 44 41 37 34 33 29 28 30 30 30 29 25 21 19 18 18 17 17 17 16 15 12 10 8 7 7 9 11 10 13 13 13 16 17 18 21 21 21
27 28 30 31 32 33 34 35 36 37 37 38 38 39 39 39 40 40 39 39 38 38 37 37 38 37 37 36 36 37 38 41 44 45 45 45 46 48 48 48 48 48 48 47 47 46 46 46 46 46 46 44 40 36 36 32 29 30 28 29 30 27 26 24 21 21 21 19 17 18 17 15 11 9 8 8 8 9 9 10 11 12 14 16 17 20 21 20
28 29 30 31 32 33 34 35 36 38 39 40 41 42 42 42 43 43 43 43 42 41 40 40 40 40 40 39 39 38 38 41 44 46 46 45 47 49 49 49 49 49 49 48 48 48 48 48 47 48 48 47 43 38 41 39 34 33 27 26 30 28 27 25 22 20 19 19 19 20 19 17 13 11 10 8 8 8 7 7 10 11 13 14 16 18 20 19
30 31 32 33 33 35 36 37 38 40 41 43 44 45 45 45 45 46 46 46 45 45 44 44 42 43 43 42 42 40 39 43 44 46 47 46 48 50 50 50 49 49 49 49 49 50 50 50 49 51 51 51 48 40 41 43 40 36 27 22 27 30 28 25 22 18 16 20 21 20 19 18 16 13 11 9 9 7 3 5 8 10 11 13 14 16 18 18
32 33 34 35 36 37 38 39 41 43 44 46 48 49 49 49 49 48 48 48 48 48 47 47 46 46 45 45 45 41 42 44 44 46 47 48 49 50 51 51 51 50 50 50 50 51 51 52 51 53 53 52 51 43 42 45 43 39 30 25 28 29 27 24 22 19 18 23 23 21 20 18 17 14 12 11 9 6 2 4 7 9 11 11 12 14 17 17
34 35 36 37 38 39 41 42 44 45 47 49 51 52 52 52 52 51 51 50 50 50 50 50 49 49 48 48 46 43 46 47 45 47 48 49 51 51 51 52 52 52 52 51 51 52 52 54 54 54 53 53 52 47 46 47 46 43 38 33 31 29 27 26 25 23 23 24 22 23 22 19 17 14 13 12 9 7 3 3 6 8 10 9 11 12 15 16
36 37 38 40 41 42 44 45 47 49 50 51 52 53 53 53 54 53 53 52 52 52 53 53 52 52 51 50 47 47 51 50 48 48 48 50 51 51 52 53 53 53 53 53 52 53 54 56 57 55 53 54 55 52 50 50 47 46 43 36 32 31 32 33 32 29 26 24 23 24 23 20 18 15 15 13 10 8 5 3 5 7 9 8 9 10 13 15
38 39 40 42 43 45 47 49 51 53 54 55 55 54 53 53 53 53 53 53 53 54 54 55 55 54 54 52 50 52 53 51 50 50 49 51 52 52 53 53 54 54 54 54 54 54 56 57 59 57 55 57 58 54 53 53 48 46 44 37 35 38 37 37 36 33 29 26 26 25 22 20 20 17 17 15 12 10 7 4 4 5 8 8 8 9 11 14
40 41 43 44 46 48 50 52 54 56 58 58 57 55 53 52 51 51 51 52 53 55 56 56 57 57 56 54 54 56 55 54 54 52 51 51 52 53 54 55 56 56 55 56 56 56 57 59 60 60 59 59 59 55 54 55 51 47 46 39 38 43 40 38 37 34 33 30 27 26 23 21 21 19 17 16 14 11 9 6 5 5 8 8 7 8 9 12
42 43 45 46 48 50 53 55 57 60 61 61 58 55 52 50 49 49 50 51 53 55 56 58 58 59 58 57 57 58 58 57 56 55 54 52 53 54 55 56 56 57 57 57 58 58 59 61 62 62 61 60 59 56 54 56 53 49 47 43 41 43 41 40 38 35 35 33 28 26 24 22 22 21 16 15 14 12 10 8 6 6 8 8 6 7 8 10
43 45 47 48 50 53 55 58 60 62 63 62 59 55 51 49 48 48 48 50 52 55 57 59 59 60 60 59 59 61 61 60 58 57 57 55 54 55 56 57 57 58 58 59 59 59 60 61 62 63 62 61 60 58 55 56 56 50 48 46 44 44 41 38 38 37 37 34 29 26 23 22 22 20 17 16 16 14 12 9 8 8 9 8 5 6 7 8
45 46 48 50 52 55 58 60 63 64 64 62 59 55 51 48 46 46 47 49 51 54 57 59 61 61 61 61 62 62 62 62 61 60 60 58 56 56 58 59 59 60 60 60 60 59 61 61 62 64 64 63 61 60 57 58 59 52 48 46 43 45 43 37 37 38 37 35 33 30 27 26 23 20 19 19 18 17 14 12 11 10 10 8 5 5 7 7
46 48 50 52 55 57 60 63 64 65 64 62 59 55 51 47 45 44 45 47 49 53 56 59 62 62 62 63 62 63 64 64 64 63 62 61 59 58 59 59 59 61 61 61 61 61 62 62 63 63 64 64 62 62 61 61 61 54 50 49 43 43 43 40 40 38 35 35 33 30 28 28 24 22 21 21 21 19 16 14 14 13 12 9 7 5 6 7
47 49 51 54 57 59 62 64 65 65 64 63 59 55 51 47 44 42 42 44 47 51 55 59 62 62 63 65 64 65 66 67 67 65 64 64 62 61 60 60 61 62 62 61 62 62 63 64 63 62 63 65 64 64 63 63 63 56 53 52 45 42 39 39 42 40 38 36 33 29 27 26 24 22 23 22 21 21 19 16 15 14 12 10 8 6 5 7
48 50 53 55 58 61 63 64 65 65 65 63 60 55 51 47 43 41 40 41 44 48 53 58 61 63 66 67 66 67 67 68 68 67 66 66 65 63 62 61 62 62 62 62 62 63 65 65 64 63 65 69 68 67 65 64 65 61 56 53 49 46 40 36 36 37 40 40 36 32 28 26 24 23 23 22 21 20 21 19 16 15 13 11 10 8 6 7
49 51 54 57 59 61 63 64 65 65 64 63 60 56 51 46 42 38 37 37 41 45 51 56 61 65 67 68 68 68 68 69 69 69 69 68 68 66 64 63 62 63 63 63 63 64 65 65 66 66 68 70 70 68 65 65 67 65 60 55 52 51 44 38 38 36 36 36 34 32 28 25 25 24 23 22 22 21 21 21 19 16 15 14 13 11 8 8
50 52 55 57 59 61 63 64 65 65 64 62 60 57 52 45 39 35 33 34 37 41 47 54 60 65 68 69 70 70 70 70 70 72 71 70 71 69 67 64 63 64 63 63 63 65 66 66 67 69 69 68 68 68 67 68 68 67 65 58 53 54 48 41 42 41 38 34 32 33 31 28 27 25 23 22 23 23 22 23 22 19 17 17 16 14 11 9
51 53 56 58 60 61 62 63 64 64 63 62 60 57 52 44 37 33 31 30 33 37 43 50 58 65 69 71 72 73 73 72 72 73 73 73 73 71 69 67 66 65 63 62 64 66 68 69 70 71 69 68 69 73 73 71 69 68 69 62 53 53 51 44 40 40 42 39 35 37 37 36 32 28 25 23 23 24 23 24 24 22 20 20 19 16 13 11
51 54 56 58 60 61 62 63 63 63 63 61 60 58 51 42 34 30 29 28 29 32 38 45 53 62 70 73 75 75 75 74 73 73 74 74 74 73 72 70 68 67 64 63 64 68 70 72 73 73 71 70 72 76 75 72 71 70 70 65 57 50 47 49 45 36 38 40 36 36 38 40 39 34 30 26 25 25 25 25 26 26 23 21 20 17 14 13
52 54 57 59 60 62 62 63 63 63 62 61 60 57 50 41 33 29 27 26 26 28 33 39 48 58 67 74 77 77 77 76 75 74 75 75 75 76 75 73 71 68 65 64 66 69 71 72 73 70 71 73 73 74 75 74 73 72 72 69 64 54 43 49 52 38 35 40 36 35 36 38 40 38 36 36 34 32 30 29 28 28 27 24 21 19 16 15
53 55 58 60 61 62 63 63 62 62 61 61 61 57 47 38 32 28 25 25 24 25 28 34 42 52 62 72 77 80 81 80 77 76 76 77 77 77 75 73 72 69 67 67 68 69 71 72 71 71 73 76 73 72 75 77 75 75 78 73 68 62 47 45 53 43 35 39 39 39 39 37 36 36 38 39 39 37 35 32 31 31 29 26 23 20 18 17
54 57 59 61 62 62 63 62 62 62 62 62 61 56 45 36 31 27 23 23 22 22 25 29 36 46 57 67 76 81 83 82 80 80 79 79 79 78 76 75 74 72 70 68 67 69 71 70 70 73 75 75 74 74 76 79 79 79 80 75 70 68 56 49 52 48 40 38 39 42 43 39 35 36 37 38 39 39 38 35 33 31 29 28 25 22 20 19
55 58 60 61 62 62 62 62 62 62 62 62 61 54 43 34 29 26 22 21 20 20 22 25 32 40 50 61 72 79 82 83 83 81 80 81 81 80 80 77 75 73 72 69 69 70 68 67 71 74 75 75 75 75 76 79 82 80 77 77 74 71 67 60 56 53 48 43 42 45 48 42 36 35 36 38 40 38 36 33 30 28 27 28 27 24 22 22
57 60 61 62 62 62 62 62 63 62 62 63 61 52 41 32 28 25 21 19 18 18 20 23 28 35 44 55 65 75 82 85 84 82 82 81 82 82 80 77 75 73 72 72 72 72 69 70 74 75 75 77 77 77 77 79 82 80 78 80 79 75 73 70 63 58 55 52 49 48 48 45 41 38 35 35 35 35 34 33 28 26 29 30 28 27 25 24
58 61 61 62 62 62 62 63 63 63 63 63 60 51 39 31 26 23 21 18 16 17 18 20 25 31 39 48 59 70 80 84 85 84 83 82 83 83 80 78 76 74 74 76 75 72 68 69 71 71 74 76 77 78 77 76 79 79 78 79 80 77 76 75 71 63 58 58 58 51 45 45 45 43 39 36 36 37 38 36 31 29 31 33 31 29 27 26
60 61 62 62 63 63 63 64 64 65 65 64 59 49 37 29 25 22 20 17 15 16 17 18 22 27 35 43 52 63 74 82 86 86 85 85 85 84 80 78 76 75 76 78 76 69 65 67 69 70 73 74 76 76 74 74 75 77 80 81 79 79 78 77 76 72 65 61 62 58 48 43 46 47 46 43 40 38 40 40 37 34 33 33 32 30 29 28
61 62 62 63 63 63 64 65 65 66 67 65 59 48 35 27 23 20 19 17 14 15 16 16 19 24 30 38 46 56 66 77 85 88 87 87 86 85 83 82 79 79 80 80 76 70 69 73 72 71 73 74 75 75 75 77 75 75 82 84 81 80 80 79 78 78 75 67 64 64 57 48 47 49 47 46 42 39 42 41 39 39 37 34 34 33 32 31
62 62 63 63 63 65 65 65 65 67 69 65 58 47 34 26 21 18 17 16 14 14 14 15 17 21 27 34 42 50 59 71 82 88 89 88 87 87 87 85 82 80 81 80 78 76 76 77 73 71 72 73 76 77 79 80 77 77 81 83 82 83 81 81 80 79 80 75 68 66 65 58 53 52 48 45 42 40 43 43 40 40 39 36 36 35 35 34
62 63 64 64 64 66 66 65 66 68 69 65 57 45 33 25 21 17 15 15 14 13 13 14 15 18 23 29 36 45 54 63 74 84 89 90 90 90 90 87 83 81 81 80 80 80 80 78 74 73 72 73 76 78 80 80 79 78 80 81 83 85 83 83 83 82 81 80 74 69 70 65 57 56 51 46 46 43 41 43 43 41 40 39 39 38 37 36
63 63 65 65 66 67 67 66 67 69 69 64 55 44 32 24 20 16 14 14 14 13 13 13 14 16 20 25 32 39 47 56 66 77 85 90 92 93 93 91 89 89 86 83 82 81 81 81 79 77 75 74 76 79 80 79 78 79 80 80 82 84 86 84 84 84 81 81 78 72 71 69 61 58 54 48 48 47 42 41 42 41 41 40 40 40 38 38
63 64 66 67 68 68 68 67 68 70 69 63 53 42 32 24 18 15 13 14 14 13 13 13 14 15 18 22 28 34 42 49 58 68 79 88 93 95 95 94 93 91 87 84 84 83 84 84 79 75 74 73 74 78 79 79 81 82 81 79 80 83 87 87 85 85 83 81 80 74 72 73 68 63 60 52 47 47 45 41 39 38 39 41 39 38 38 40
64 66 67 68 69 70 68 68 69 71 69 62 50 39 31 24 18 14 14 14 15 15 14 14 13 14 17 20 24 30 37 44 52 61 71 82 91 96 95 93 92 88 84 84 84 84 86 87 80 76 76 74 75 77 78 81 83 82 81 82 83 84 86 88 87 86 85 83 82 78 74 76 75 69 66 63 55 50 47 46 45 42 43 47 46 42 43 44
64 67 69 70 71 70 69 69 71 71 68 59 48 37 28 23 17 15 15 15 17 16 15 14 13 13 16 19 22 27 33 40 48 57 66 76 86 93 95 94 93 91 88 87 86 84 86 86 80 78 78 76 77 77 77 80 82 82 84 85 85 85 84 86 88 88 87 85 84 83 79 77 78 74 72 72 67 58 52 51 54 52 48 50 51 48 46 45
65 68 70 72 73 71 70 70 72 72 67 57 45 34 26 21 17 16 16 17 18 17 16 15 14 14 15 15 19 24 30 37 44 52 62 70 80 88 92 94 94 93 91 91 88 85 86 86 81 79 80 79 78 77 76 79 82 83 84 82 81 83 82 83 86 87 89 88 85 85 83 79 79 77 74 75 75 69 60 56 57 55 49 47 49 51 50 48
67 69 72 74 74 72 71 71 72 71 64 54 43 33 25 21 17 16 17 18 18 18 18 18 17 16 14 14 16 21 27 33 39 47 56 64 73 81 87 92 94 94 92 91 89 86 87 88 85 83 82 79 77 77 76 78 81 83 83 81 82 84 84 82 83 86 88 89 87 86 86 83 81 77 72 72 74 72 66 61 60 57 51 46 46 49 53 54
68 70 73 75 75 73 72 73 73 69 61 51 41 31 25 21 18 17 18 19 19 19 20 20 19 18 17 16 16 19 23 29 34 41 48 56 65 74 82 88 92 94 93 92 91 90 90 90 88 85 83 81 79 79 79 80 82 82 82 83 85 85 86 85 84 85 86 88 89 89 88 85 82 80 76 73 72 71 69 67 64 61 57 55 54 52 55 58
69 72 74 76 76 75 75 75 73 67 56 47 38 29 24 21 18 17 18 19 20 20 21 22 22 22 21 20 19 19 21 25 29 36 43 49 57 67 76 83 89 92 93 95 94 92 91 90 88 87 86 85 85 83 82 81 80 79 80 83 85 84 85 86 86 85 85 87 90 90 90 88 86 85 83 79 76 74 74 73 69 65 65 67 67 63 59 59
70 73 76 77 78 77 77 76 72 63 52 43 35 28 23 20 18 18 18 20 21 22 22 23 23 24 23 22 22 22 22 24 27 33 39 45 52 61 69 76 84 90 93 95 94 91 91 90 88 88 88 88 87 84 82 79 77 78 79 81 83 83 84 85 87 86 85 86 88 90 91 90 89 88 86 84 80 77 75 72 66 63 64 68 73 73 67 62
71 74 76 78 78 78 78 76 70 59 48 40 33 26 22 19 18 19 18 19 22 23 23 23 24 25 25 25 25 24 25 25 27 31 35 40 48 56 63 70 78 86 91 94 94 93 93 92 90 90 89 89 87 83 81 80 77 78 79 79 81 83 84 85 87 87 88 88 88 89 90 90 90 91 91 89 86 82 80 76 68 62 59 61 69 76 76 71
72 75 77 79 79 79 79 75 67 56 46 38 31 25 21 18 17 19 19 20 22 24 24 24 24 25 25 26 26 26 26 27 29 30 33 37 43 51 59 66 73 81 88 93 96 96 94 93 92 91 91 91 89 86 85 84 81 80 81 81 83 84 85 86 87 88 89 88 86 86 88 90 91 94 95 94 90 87 85 83 80 76 68 63 65 69 71 72
74 76 79 81 80 80 79 73 62 52 43 36 30 24 20 18 17 19 20 21 22 23 24 24 25 25 25 26 26 26 27 28 29 30 32 35 40 46 54 62 69 77 84 90 94 95 94 93 92 92 93 93 91 89 89 88 86 85 86 86 86 84 83 84 86 87 87 86 87 88 88 89 91 92 94 95 92 89 88 86 86 86 82 77 74 73 72 73
75 78 80 82 82 81 78 70 58 48 40 34 29 24 20 18 17 19 21 22 23 23 24 25 25 25 25 25 26 27 27 28 29 30 32 34 37 42 49 56 64 73 81 86 91 93 93 93 94 94 94 94 91 90 90 90 89 88 88 88 86 83 81 83 84 84 86 87 89 91 90 89 89 88 89 93 93 91 90 89 89 89 89 87 85 82 80 80
76 78 80 82 83 81 76 66 55 45 38 33 29 24 20 18 17 19 21 23 24 25 24 25 25 25 25 25 26 26 27 28 29 30 32 34 35 39 44 50 58 66 75 82 87 90 93 95 96 96 96 94 92 92 91 90 89 88 87 86 84 82 83 84 84 85 88 89 90 91 91 91 90 86 82 85 90 92 91 91 92 92 92 92 90 88 84 83
77 79 81 82 83 80 74 63 52 43 37 32 28 24 21 19 18 19 21 23 25 26 25 25 25 25 25 25 26 26 27 28 29 30 32 33 35 38 41 46 53 60 69 75 81 87 91 95 96 97 96 95 94 93 92 91 90 88 87 85 84 84 85 85 85 87 88 88 89 90 91 91 92 89 83 81 85 89 93 95 95 95 95 94 93 91 88 85
78 80 81 83 82 78 70 60 49 41 36 32 28 24 22 19 18 19 21 23 25 26 26 25 26 26 26 26 26 26 27 28 28 29 31 33 35 37 41 45 50 56 63 70 76 82 88 93 96 96 97 97 96 95 94 93 92 91 89 88 87 86 86 87 88 88 86 87 89 90 91 91 91 88 85 87 89 89 92 97 97 96 97 96 95 94 92 88
78 79 81 83 82 76 67 56 47 40 35 31 28 25 22 20 19 19 21 22 24 26 27 26 27 27 26 26 26 26 27 28 28 29 30 32 35 37 40 43 46 50 56 63 70 77 84 90 94 95 97 98 98 97 96 95 95 94 92 91 89 89 89 90 89 87 86 87 88 90 91 90 90 87 85 89 94 91 90 94 96 97 97 97 97 96 94 91
78 80 81 82 81 74 63 53 45 40 35 31 27 25 22 20 19 19 21 22 24 26 27 27 27 27 27 26 26 26 26 27 28 29 29 31 33 36 39 43 46 48 51 57 65 72 78 85 90 93 96 99 99 99 98 98 97 97 96 93 92 92 91 90 89 87 87 86 87 89 88 86 88 90 89 90 93 93 92 91 92 94 96 97 98 98 97 95
Wind_Direction
304 303 301 300 298 297 296 295 293 291 288 286 282 278 274 269 266 262 258 253 251 250 246 242 238 233 228 226 227 226 224 222 219 218 218 216 214 214 214 213 212 211 209 207 204 202 201 198 196 195 196 196 195 195 196 194 191 196 199 201 208 206 207 222 225 230 236 239 243 243 249 279 297 325 349 1 7 2 2 5 8 11 15 19 23 30 34 33
302 300 298 297 296 295 293 292 291 290 289 287 285 281 278 273 269 265 261 257 252 248 246 243 240 237 231 227 225 226 225 222 220 218 218 216 213 213 213 212 211 210 209 207 204 202 200 198 196 194 195 195 195 198 199 196 196 196 196 202 207 201 204 222 226 226 236 238 235 243 251 264 268 281 323 347 4 0 1 1 3 7 12 17 21 28 34 34
304 302 301 299 298 296 295 293 291 290 287 286 284 282 280 277 273 268 263 260 255 251 246 243 241 238 234 230 225 224 224 223 221 219 217 215 214 212 211 211 210 209 209 206 204 201 199 198 194 193 193 192 195 202 203 200 199 196 194 203 203 194 198 216 228 226 232 235 229 240 249 253 239 254 302 319 357 1 0 356 357 4 9 15 20 25 32 34
309 308 307 305 304 302 300 298 296 293 290 288 285 282 280 278 275 271 266 262 258 254 249 245 242 239 235 232 228 225 223 223 223 220 217 216 214 212 210 210 209 209 208 206 204 201 199 197 194 192 190 190 193 199 204 204 203 198 197 206 205 197 197 207 225 228 231 230 228 237 243 244 231 262 303 298 346 357 355 350 353 1 7 13 17 23 30 33
313 311 310 308 307 306 304 303 300 298 295 292 289 286 282 279 275 272 269 265 260 256 252 247 243 240 236 233 230 227 223 223 223 221 217 216 215 213 211 209 209 209 208 206 203 201 199 197 194 191 189 191 192 194 202 205 204 202 201 208 208 207 203 204 217 223 227 231 234 243 244 241 240 269 299 290 332 349 347 346 350 358 6 10 16 21 27 31
312 311 309 308 306 305 303 302 300 298 296 294 291 288 285 282 277 273 269 266 262 258 254 249 245 241 238 234 231 228 225 223 223 221 218 216 215 214 211 209 208 208 208 206 203 201 199 197 194 190 189 191 190 194 201 203 205 205 206 210 211 214 212 208 217 224 229 236 241 245 244 242 246 264 284 292 320 336 339 343 347 356 5 8 14 21 25 29
309 308 306 304 302 300 299 297 296 295 293 291 290 288 285 283 279 275 271 266 262 259 255 251 247 243 239 236 232 228 226 225 223 221 218 216 216 215 212 209 207 207 207 205 203 201 199 197 194 191 190 191 190 193 198 202 204 204 206 210 212 218 219 219 227 233 235 238 243 246 245 244 249 257 271 290 308 322 335 341 346 356 3 5 11 20 25 27
308 307 305 303 301 299 297 295 294 293 292 290 288 286 284 282 279 276 272 268 263 259 255 252 249 245 240 237 234 229 226 226 224 221 218 216 217 216 213 210 207 206 206 205 203 201 199 197 195 192 190 191 191 192 197 202 202 200 201 205 210 215 218 222 229 234 236 238 240 243 243 244 251 258 267 280 293 310 333 337 344 354 360 3 8 19 26 27
308 308 306 305 303 301 299 297 296 295 293 291 289 286 284 281 278 275 271 268 264 259 255 252 249 246 241 237 234 229 228 227 224 223 218 216 218 216 214 211 208 206 205 204 203 202 200 196 195 194 191 191 191 191 198 202 201 200 201 202 205 210 213 217 228 239 248 245 241 239 241 246 251 258 265 269 282 295 323 335 341 351 356 1 4 17 27 27
309 308 307 306 305 304 302 301 299 298 296 294 291 288 285 281 277 274 270 266 263 259 255 251 247 245 242 238 234 230 230 228 225 224 219 216 218 216 214 212 208 206 203 203 203 202 200 197 195 195 193 191 193 193 196 200 200 198 202 203 200 202 206 213 227 236 242 242 239 236 236 241 246 253 262 261 269 274 271 329 338 344 350 360 1 15 29 28
310 309 308 308 307 306 305 303 302 301 299 297 294 290 286 281 277 273 269 265 260 257 254 250 246 243 240 238 233 230 231 228 225 224 221 217 217 215 214 213 209 206 203 202 202 203 201 198 197 195 193 193 194 196 195 197 199 198 200 206 203 200 204 212 219 220 223 229 231 233 232 233 239 247 257 255 255 253 233 298 323 335 341 355 358 10 30 30
311 310 310 309 309 308 306 305 304 303 303 301 298 294 288 282 277 272 268 264 259 255 252 249 246 242 239 236 232 230 230 227 225 224 221 219 217 214 214 213 210 207 203 202 201 203 202 200 198 195 194 194 195 196 196 196 199 200 203 209 212 209 210 214 215 214 216 218 221 228 229 230 237 244 250 244 241 246 236 264 300 325 335 347 351 2 28 34
313 312 311 311 310 309 307 306 306 306 305 304 301 297 291 283 277 271 267 262 258 253 249 247 244 241 238 234 231 229 228 226 226 224 221 220 217 214 213 213 211 207 204 202 201 202 203 201 199 196 194 195 197 198 196 196 197 200 202 207 214 215 214 215 217 218 216 217 220 225 227 229 238 243 242 234 231 240 234 236 273 315 327 335 341 351 23 36
314 313 312 312 311 310 309 308 308 308 307 306 303 299 293 286 278 271 265 260 256 251 247 245 243 240 237 233 229 228 227 225 224 223 222 220 218 215 213 212 211 208 205 203 201 202 203 202 200 197 195 195 197 198 196 196 196 200 202 202 210 215 214 214 216 220 222 226 226 226 229 230 235 237 232 230 230 231 226 228 246 288 312 317 326 338 11 34
315 314 313 313 312 311 310 310 310 310 309 308 305 301 295 287 279 272 265 258 253 250 246 243 241 239 236 232 229 227 225 224 223 222 221 220 218 216 213 211 211 209 206 204 202 202 203 203 201 199 196 195 196 197 197 195 194 200 202 203 211 214 215 215 214 217 221 225 225 225 231 231 230 231 229 231 230 223 215 222 241 269 294 296 306 323 352 27
315 315 314 313 312 312 311 311 312 312 311 310 307 303 297 289 281 273 265 259 253 248 245 242 240 238 235 231 228 225 224 222 221 221 220 219 218 216 214 211 210 209 207 205 204 203 203 203 202 200 197 196 196 197 196 195 194 198 200 203 211 211 213 217 215 215 218 222 224 224 229 231 230 231 234 234 225 216 210 217 240 261 279 276 279 308 333 11
315 315 314 314 313 313 313 313 314 313 313 312 310 306 300 292 284 275 267 259 253 247 243 241 238 236 234 230 227 224 222 221 220 219 219 218 218 216 215 212 210 209 207 206 205 204 203 203 203 202 199 196 197 197 196 195 195 197 199 204 211 209 209 215 215 218 221 225 229 229 229 231 233 233 236 237 224 212 211 218 232 251 265 255 248 287 318 348
316 316 315 315 314 314 315 315 315 315 315 314 312 309 304 296 287 278 268 260 252 246 241 238 236 234 232 230 226 223 221 220 219 218 217 217 216 216 215 213 211 209 208 206 206 205 203 203 204 202 200 198 198 197 196 195 194 196 200 204 210 209 211 217 217 216 220 224 227 227 224 225 233 236 236 237 224 211 211 216 224 242 252 237 232 260 304 328
317 317 316 316 316 316 317 317 317 317 317 316 315 312 308 301 292 281 271 261 252 244 239 235 233 231 229 227 224 221 219 218 217 216 216 216 215 215 214 213 212 209 208 207 206 206 204 203 203 202 201 200 200 199 197 196 194 195 200 205 206 205 208 215 216 216 218 220 220 221 224 227 233 236 235 233 223 213 210 213 220 232 237 224 225 242 281 310
318 318 317 317 318 318 318 318 319 319 319 319 318 316 312 306 297 285 273 261 251 242 236 232 229 227 225 224 222 219 218 217 216 215 215 215 214 214 214 213 212 210 208 207 207 207 206 203 202 202 202 200 200 200 198 196 195 194 199 203 202 201 201 203 207 213 217 219 219 222 228 233 231 229 230 232 232 228 216 213 217 221 225 223 224 235 259 288
319 319 319 319 320 320 320 321 321 321 321 321 320 319 316 310 301 289 276 262 250 241 233 228 225 223 222 221 220 218 216 215 214 214 214 214 213 212 213 212 212 211 209 207 207 208 206 204 202 202 202 201 200 199 198 198 197 196 198 201 202 202 203 202 202 206 210 212 217 219 219 225 227 227 233 237 241 238 222 215 216 217 226 233 229 231 245 268
320 321 321 322 322 322 323 323 323 323 324 324 323 323 320 314 304 292 279 265 252 241 233 226 222 220 219 218 218 216 216 214 213 212 212 213 213 211 211 211 212 212 209 207 206 207 207 205 204 204 202 201 200 199 199 199 197 197 199 200 202 204 204 206 207 208 211 212 216 217 213 217 225 229 233 236 240 239 226 220 221 220 226 236 234 229 237 254
322 323 324 324 324 325 325 325 325 326 326 326 326 326 323 317 307 295 282 269 255 243 234 226 220 217 216 215 215 215 214 213 212 212 211 212 212 211 210 210 211 211 210 208 207 207 207 206 205 204 201 200 199 199 200 199 197 198 199 199 202 203 205 208 205 209 218 219 220 221 218 220 225 228 228 229 234 237 231 225 225 224 224 233 235 228 232 245
325 326 326 327 327 327 327 327 327 328 329 329 329 329 326 318 309 298 286 273 259 246 235 227 220 216 213 212 213 213 213 213 212 211 211 211 211 210 209 209 210 210 209 209 208 207 207 207 206 203 200 200 200 200 200 198 198 198 198 198 199 196 202 208 201 200 211 214 218 220 218 220 222 225 227 224 223 230 234 231 227 224 223 229 231 225 228 237
327 328 328 329 329 329 329 329 330 331 331 332 332 332 327 319 311 301 289 278 264 250 238 228 221 216 213 211 211 211 211 212 211 211 211 210 211 211 209 208 209 209 208 209 209 207 207 208 207 203 202 202 201 200 201 199 199 199 197 198 198 194 195 203 201 199 205 208 214 213 210 215 220 224 228 227 228 235 240 236 228 222 221 224 225 224 229 235
329 330 330 331 331 330 330 330 332 333 334 334 335 334 328 319 311 303 292 281 268 255 242 231 222 217 213 211 210 209 210 210 210 210 209 209 210 211 210 209 209 209 209 209 209 208 207 208 206 204 204 203 201 200 201 200 199 200 198 197 197 195 194 196 197 199 202 206 211 210 206 210 219 224 225 227 231 234 238 237 231 223 219 221 222 225 229 233
331 331 332 332 331 331 331 333 335 336 337 337 337 335 328 319 311 304 294 282 271 259 246 234 224 217 213 211 209 209 209 209 209 209 208 207 208 209 209 208 208 208 209 209 210 210 208 207 207 207 206 204 201 201 201 201 201 202 200 198 197 197 196 192 192 197 198 196 201 204 204 205 212 219 221 224 227 230 236 237 229 219 216 218 220 223 227 229
332 332 332 332 331 331 333 335 337 338 339 339 338 335 328 318 310 303 295 284 273 262 249 237 226 218 214 212 210 209 208 208 209 208 207 207 207 207 208 208 207 208 209 209 210 210 208 207 209 208 206 204 203 202 201 201 203 203 200 200 200 199 198 195 192 196 198 194 192 196 198 197 201 212 219 222 225 229 231 226 218 219 222 221 218 220 223 225
333 333 332 332 332 333 335 338 339 340 340 340 339 335 327 318 310 302 295 286 275 265 252 239 228 220 215 212 210 209 208 208 208 208 207 206 206 207 207 208 207 207 209 210 211 209 207 208 209 207 206 205 204 203 202 202 203 203 202 203 202 201 201 200 198 198 199 199 197 194 196 197 198 206 213 217 218 217 215 215 222 230 229 223 218 218 222 224
333 333 332 332 333 335 338 340 340 340 341 341 340 336 327 317 307 300 294 286 276 266 254 242 231 221 216 212 210 209 208 208 207 207 207 206 206 207 207 207 207 207 209 211 211 209 208 210 210 208 208 207 206 205 203 203 204 203 203 205 204 203 204 203 202 201 200 202 202 198 195 198 200 202 208 213 213 211 214 223 234 234 227 223 220 217 219 222
333 332 332 333 334 338 340 341 341 341 341 342 340 336 327 315 304 296 290 284 275 266 257 245 233 223 216 212 210 209 208 207 207 207 206 206 206 206 206 207 207 207 210 211 211 208 208 212 211 209 209 208 208 207 204 205 204 203 205 206 205 205 206 206 205 205 204 203 204 203 197 197 202 204 209 215 217 220 225 231 233 229 226 224 222 219 219 222
333 333 333 334 337 340 342 342 342 341 342 341 340 336 327 314 300 291 286 281 273 265 259 249 237 225 218 213 210 209 208 208 207 207 206 206 206 205 206 207 207 208 209 210 209 206 207 211 210 209 209 208 208 207 206 206 203 203 206 206 205 206 206 207 207 208 209 207 206 205 202 200 204 206 211 216 218 223 226 227 228 227 226 225 224 223 220 221
333 333 334 336 339 342 342 342 342 341 341 341 340 336 327 313 298 285 279 277 271 264 258 251 240 228 220 214 210 208 208 208 208 207 207 206 206 206 207 207 207 209 210 209 207 205 208 210 209 209 208 207 208 208 208 207 202 203 207 206 206 207 207 208 208 209 211 210 208 207 205 204 205 206 209 212 215 219 220 220 222 223 224 225 224 223 221 222
333 334 336 339 342 343 342 342 342 341 341 341 339 335 326 312 298 281 270 269 268 263 255 249 241 231 223 215 211 209 208 208 208 208 207 207 206 207 208 208 208 210 211 210 208 206 208 209 207 208 208 207 208 208 209 208 203 204 206 205 206 208 208 208 208 209 211 211 209 208 206 206 205 207 210 213 216 218 217 217 219 221 223 226 224 222 222 223
334 336 339 341 343 343 342 342 342 341 341 340 338 333 325 312 296 279 263 257 259 259 252 245 237 230 224 216 211 210 209 208 208 208 208 208 208 207 208 208 209 210 210 210 209 208 209 210 207 207 207 206 207 209 209 208 206 206 206 205 206 208 209 209 209 210 211 211 210 209 208 206 205 207 210 215 219 217 215 216 218 221 226 227 223 222 224 226
336 339 341 343 343 343 342 342 341 341 340 340 337 332 324 313 295 274 255 244 246 249 247 244 235 228 224 217 211 209 208 208 207 208 208 209 209 209 209 208 209 210 209 209 209 207 209 211 208 207 208 207 208 209 209 208 208 208 206 205 207 208 209 209 210 210 211 211 210 210 210 209 207 207 208 210 213 211 210 211 212 216 222 225 222 223 230 231
338 341 343 343 343 342 342 341 341 340 340 339 336 330 321 311 297 272 250 236 235 238 240 242 236 228 224 217 211 208 208 208 207 208 208 209 210 210 210 210 211 211 210 211 211 209 210 212 207 206 208 207 209 209 208 209 210 209 207 206 207 208 209 209 210 210 211 211 210 209 211 210 209 209 209 210 212 209 205 207 209 211 218 225 228 232 235 234
341 343 344 343 343 342 341 341 340 339 339 338 335 329 319 307 293 271 250 235 229 229 233 236 235 228 222 217 212 207 207 208 208 208 208 209 210 210 210 210 211 212 211 212 212 210 212 213 208 208 208 207 209 209 208 210 210 210 209 208 208 208 209 209 210 210 211 212 211 211 211 211 211 212 211 211 213 210 206 207 210 212 217 226 231 233 232 231
342 344 344 343 342 341 341 341 339 338 338 337 333 328 317 302 287 266 250 236 227 224 226 230 230 228 224 217 214 211 209 209 210 210 210 209 209 209 210 210 211 212 211 212 212 210 212 213 209 210 210 209 210 210 209 210 211 211 210 210 210 210 210 211 211 211 212 212 212 212 212 212 212 213 214 213 213 213 213 212 210 211 216 223 229 232 232 230
343 344 344 343 342 341 341 340 339 337 337 335 332 327 315 299 281 263 249 238 229 222 221 224 225 225 222 213 213 214 213 211 211 212 211 211 210 209 209 210 210 211 212 212 212 210 212 212 209 210 211 210 211 211 210 211 212 211 210 210 211 211 211 211 211 212 213 212 212 212 212 213 213 215 217 216 213 214 217 216 213 213 215 217 221 230 234 231
343 344 344 343 342 341 340 339 338 337 336 333 330 324 313 298 280 261 248 239 232 224 221 222 223 223 221 214 212 214 215 214 214 214 213 212 212 210 209 210 210 210 211 212 211 210 212 212 209 209 211 211 211 211 211 212 213 211 210 211 212 211 211 211 211 212 213 213 213 213 213 213 214 215 218 219 216 215 216 216 216 217 217 216 217 222 229 230
343 344 344 343 342 340 339 338 337 337 335 331 327 321 309 297 280 260 247 238 233 229 225 223 224 225 223 219 216 217 219 218 217 216 213 212 213 212 210 210 209 210 210 211 211 211 212 213 210 210 211 211 211 211 211 212 213 212 212 213 213 212 212 212 212 212 213 213 214 214 214 214 213 214 217 219 218 217 217 217 218 220 221 223 223 223 227 230
343 344 343 342 341 340 338 337 337 336 333 328 325 319 307 295 278 261 249 238 233 231 229 227 227 228 228 225 222 222 223 224 222 218 214 212 213 212 211 211 210 209 210 211 211 211 213 213 212 211 213 213 212 212 212 212 212 213 214 215 215 214 214 214 214 213 213 214 214 214 214 215 215 215 217 219 218 218 217 217 218 222 225 228 229 229 229 230
342 343 343 342 341 339 338 337 337 336 332 327 323 316 305 293 275 261 251 239 233 232 231 230 230 230 232 232 230 228 227 228 229 224 217 213 213 212 211 211 211 211 210 210 210 211 212 213 212 212 213 215 214 213 214 213 212 214 215 215 216 215 215 215 215 215 215 215 214 215 215 215 216 217 219 221 219 217 217 216 215 218 220 224 227 229 231 231
342 342 342 341 340 339 337 337 336 335 331 326 321 314 303 290 273 259 250 240 234 233 232 232 233 232 232 234 235 234 232 231 232 230 224 216 215 214 211 210 211 211 211 211 210 211 212 213 213 213 214 215 214 213 214 213 212 214 215 216 216 216 215 215 216 216 216 216 216 216 216 215 216 217 219 221 221 220 218 217 217 217 216 219 222 223 226 227
341 342 342 341 340 339 337 336 336 334 330 324 318 312 301 287 270 256 248 240 235 234 234 234 235 234 233 234 235 236 236 235 233 232 230 223 217 215 214 212 212 212 212 212 212 212 213 214 214 214 215 216 214 213 214 214 212 212 214 215 216 216 216 216 217 217 218 218 217 218 218 217 217 218 220 221 223 223 221 219 219 219 218 220 222 221 222 225
341 341 341 340 339 337 336 336 335 332 328 323 317 310 300 285 268 253 245 239 234 233 234 234 235 235 234 234 235 236 237 239 236 233 232 229 222 218 215 214 214 213 213 213 213 213 214 215 215 216 216 217 216 215 216 216 215 214 215 216 215 215 216 217 217 218 218 219 218 218 219 218 218 219 221 222 223 224 224 222 221 221 220 222 223 224 225 227
340 341 340 339 338 336 335 335 334 331 327 322 315 308 298 283 266 251 243 238 234 232 233 234 236 237 236 236 237 238 239 240 240 237 235 231 225 221 218 216 216 216 214 213 214 214 214 215 216 217 217 217 217 217 217 218 217 217 218 218 217 216 217 218 217 218 218 219 220 219 219 219 218 219 221 223 225 226 226 226 225 224 223 223 224 225 226 227
340 340 340 338 337 335 334 334 332 330 326 320 314 306 296 283 267 252 242 237 235 233 233 235 237 238 239 239 239 240 242 242 241 240 238 234 227 222 220 218 217 217 215 214 214 214 215 216 216 217 218 218 218 218 218 219 219 218 219 220 219 218 219 219 219 219 219 219 220 221 221 220 220 219 219 222 226 227 227 227 226 226 225 225 226 226 227 228
340 340 339 337 336 334 333 332 330 328 324 319 311 303 294 283 269 254 243 238 235 235 234 236 239 240 241 242 242 243 244 245 243 241 240 237 231 224 220 219 218 218 217 216 215 215 216 216 216 217 218 218 218 219 219 219 220 219 219 220 220 220 220 220 220 220 220 220 221 221 222 221 221 221 221 221 224 226 227 227 227 227 227 226 227 228 228 228
340 340 338 336 335 333 331 329 327 326 323 316 309 300 291 282 270 256 245 239 236 236 235 236 239 240 242 243 244 245 246 247 247 245 242 240 235 228 222 220 220 219 218 218 217 217 217 217 217 217 218 218 218 219 219 219 220 220 219 219 220 221 221 221 221 221 221 221 222 223 223 222 222 222 223 224 224 225 227 228 228 229 228 228 229 229 228 227
340 340 338 336 333 332 330 327 325 324 320 314 306 297 288 280 269 256 247 240 237 237 237 237 239 241 242 243 244 246 247 249 249 249 246 242 238 232 225 220 219 217 217 218 218 218 218 218 218 218 218 218 218 219 219 219 220 221 220 219 220 221 222 223 223 223 222 222 224 225 224 224 224 223 224 226 227 226 227 229 229 229 229 229 230 230 230 229
Height
10930 10929 10929 10928 10928 10927 10927 10926 10926 10925 10925 10924 10924 10924 10924 10924 10924 10925 10925 10925 10925 10926 10927 10928 10929 10930 10931 10932 10934 10937 10939 10942 10944 10946 10948 10951 10956 10959 10963 10967 10971 10975 10979 10983 10986 10990 10994 10998 11001 11004 11007 11010 11014 11017 11018 11020 11022 11023 11024 11025 11024 11025 11026 11025 11026 11026 11026 11027 11029 11029 11029 11029 11029 11029 11028 11028 11027 11026 11024 11022 11020 11018 11015 11013 11011 11008 11006 11004
10927 10927 10926 10926 10925 10925 10924 10924 10923 10923 10922 10922 10922 10921 10921 10921 10921 10922 10922 10922 10922 10923 10923 10924 10925 10926 10927 10929 10930 10933 10935 10938 10941 10943 10945 10949 10953 10956 10960 10964 10968 10972 10976 10979 10983 10987 10992 10996 10999 11003 11006 11010 11014 11016 11017 11019 11020 11022 11024 11025 11025 11026 11026 11024 11024 11026 11027 11027 11029 11029 11029 11030 11030 11029 11029 11029 11028 11027 11024 11023 11021 11019 11017 11015 11012 11009 11007 11005
10925 10924 10924 10923 10923 10922 10922 10921 10921 10920 10920 10919 10919 10918 10918 10918 10918 10918 10918 10919 10919 10920 10920 10921 10922 10923 10924 10925 10927 10929 10931 10934 10937 10938 10941 10946 10949 10952 10957 10960 10964 10968 10972 10975 10980 10985 10990 10994 10997 11001 11005 11009 11013 11015 11016 11018 11020 11021 11023 11024 11024 11025 11025 11023 11024 11025 11027 11028 11028 11029 11029 11030 11030 11029 11029 11029 11029 11027 11025 11024 11022 11020 11018 11016 11014 11011 11009 11007
10922 10921 10921 10920 10919 10919 10919 10918 10917 10917 10916 10916 10916 10915 10915 10915 10914 10914 10914 10915 10915 10916 10917 10918 10918 10919 10920 10922 10923 10925 10927 10930 10932 10934 10938 10942 10945 10949 10953 10957 10961 10964 10967 10973 10978 10983 10987 10991 10995 10998 11003 11007 11010 11014 11015 11016 11018 11020 11021 11021 11022 11024 11023 11023 11024 11024 11026 11027 11028 11029 11029 11029 11029 11029 11029 11029 11029 11027 11026 11025 11023 11021 11019 11017 11015 11013 11010 11008
10919 10919 10918 10917 10916 10915 10915 10914 10914 10913 10913 10912 10912 10912 10911 10911 10911 10910 10910 10911 10911 10912 10913 10914 10914 10915 10916 10918 10919 10921 10924 10926 10927 10930 10935 10939 10942 10945 10948 10953 10956 10960 10964 10970 10976 10980 10984 10988 10992 10996 11001 11005 11008 11011 11012 11013 11016 11018 11018 11018 11021 11023 11024 11025 11025 11024 11025 11026 11027 11028 11029 11029 11029 11029 11029 11029 11028 11028 11027 11026 11024 11022 11021 11019 11017 11014 11012 11010
10917 10916 10915 10914 10913 10912 10911 10910 10910 10909 10908 10908 10907 10907 10907 10907 10906 10906 10906 10906 10906 10907 10908 10909 10910 10912 10912 10914 10915 10917 10920 10920 10922 10926 10931 10935 10938 10941 10944 10948 10952 10957 10962 10967 10972 10976 10981 10985 10990 10994 10998 11002 11004 11008 11010 11011 11014 11016 11017 11019 11021 11023 11025 11027 11026 11026 11026 11026 11027 11028 11028 11029 11029 11029 11029 11029 11029 11029 11028 11026 11025 11024 11022 11020 11018 11016 11013 11012
10914 10913 10912 10911 10910 10909 10908 10907 10906 10904 10904 10903 10902 10902 10902 10901 10901 10900 10900 10900 10901 10902 10903 10904 10905 10907 10908 10910 10911 10913 10915 10916 10918 10922 10927 10932 10934 10936 10940 10944 10949 10953 10959 10964 10969 10973 10977 10982 10986 10991 10995 10999 11002 11005 11008 11009 11012 11014 11016 11019 11021 11023 11025 11026 11026 11026 11026 11026 11027 11027 11028 11028 11029 11029 11029 11029 11029 11029 11028 11027 11026 11025 11023 11021 11020 11017 11015 11013
10911 10910 10909 10908 10907 10905 10904 10903 10901 10900 10899 10897 10897 10896 10896 10895 10895 10894 10894 10894 10895 10896 10897 10898 10900 10902 10903 10905 10906 10909 10911 10911 10914 10916 10922 10927 10929 10931 10936 10940 10945 10950 10956 10961 10966 10969 10974 10978 10983 10988 10991 10996 10999 11001 11003 11006 11009 11012 11015 11018 11020 11023 11025 11026 11025 11025 11026 11027 11027 11026 11027 11028 11028 11028 11029 11029 11029 11029 11028 11028 11027 11025 11024 11023 11021 11019 11017 11015
10908 10906 10905 10904 10902 10901 10899 10898 10896 10895 10893 10892 10890 10889 10889 10888 10888 10887 10887 10887 10888 10889 10891 10891 10894 10895 10897 10900 10901 10905 10907 10906 10909 10912 10917 10921 10923 10927 10932 10936 10942 10947 10952 10957 10961 10965 10969 10974 10980 10983 10987 10991 10995 10997 10999 11003 11007 11010 11014 11018 11021 11023 11026 11027 11026 11027 11027 11025 11025 11025 11026 11026 11027 11028 11028 11029 11029 11029 11028 11028 11027 11026 11025 11023 11022 11020 11018 11017
10904 10902 10900 10899 10897 10896 10894 10892 10891 10889 10887 10885 10884 10882 10881 10880 10879 10879 10879 10879 10880 10881 10882 10884 10886 10887 10891 10893 10896 10902 10902 10902 10905 10907 10911 10915 10918 10923 10927 10932 10937 10943 10948 10952 10957 10960 10965 10971 10975 10978 10983 10988 10991 10994 10997 11001 11005 11010 11015 11017 11020 11022 11027 11029 11028 11027 11025 11022 11022 11023 11024 11024 11025 11026 11027 11028 11029 11029 11028 11028 11027 11027 11026 11024 11023 11021 11019 11018
10899 10898 10896 10894 10892 10890 10888 10886 10884 10882 10880 10878 10876 10874 10872 10871 10870 10870 10870 10870 10871 10873 10873 10875 10877 10880 10883 10885 10891 10897 10896 10896 10900 10901 10905 10909 10912 10918 10923 10927 10933 10938 10943 10948 10952 10956 10961 10966 10969 10974 10981 10985 10989 10992 10996 10999 11004 11008 11012 11016 11019 11023 11027 11027 11023 11022 11020 11018 11019 11019 11020 11022 11023 11025 11026 11027 11028 11028 11028 11028 11028 11027 11026 11025 11023 11022 11021 11019
10895 10893 10891 10888 10886 10884 10882 10879 10877 10875 10873 10870 10867 10865 10862 10861 10860 10859 10860 10860 10862 10863 10864 10865 10868 10871 10874 10878 10886 10889 10887 10891 10895 10896 10900 10903 10907 10913 10917 10922 10928 10933 10938 10943 10947 10951 10956 10960 10965 10971 10976 10980 10984 10988 10992 10997 11002 11006 11011 11016 11019 11021 11021 11018 11016 11017 11016 11016 11015 11015 11018 11019 11021 11023 11024 11026 11027 11028 11028 11027 11028 11027 11027 11025 11024 11023 11022 11020
10890 10887 10885 10883 10881 10878 10875 10873 10870 10867 10864 10861 10858 10855 10852 10850 10849 10848 10849 10850 10851 10852 10854 10855 10858 10861 10865 10871 10878 10879 10880 10886 10889 10891 10895 10897 10902 10907 10912 10917 10922 10927 10933 10937 10942 10946 10950 10955 10960 10966 10971 10976 10980 10985 10990 10995 11000 11005 11010 11013 11013 11012 11013 11013 11014 11015 11015 11014 11013 11014 11017 11017 11019 11022 11023 11025 11026 11027 11027 11027 11027 11027 11027 11026 11025 11024 11022 11021
10885 10882 10880 10877 10875 10872 10869 10865 10862 10859 10855 10852 10849 10845 10841 10839 10837 10837 10837 10838 10839 10841 10843 10845 10848 10851 10856 10863 10867 10869 10874 10879 10882 10885 10889 10892 10896 10901 10906 10911 10916 10922 10927 10932 10936 10939 10944 10949 10954 10960 10965 10971 10976 10982 10987 10992 10998 11002 11005 11007 11005 11004 11009 11013 11014 11014 11014 11014 11014 11015 11016 11017 11019 11020 11022 11023 11025 11026 11027 11027 11027 11027 11027 11026 11025 11024 11023 11022
10880 10877 10874 10871 10869 10865 10862 10858 10854 10851 10846 10842 10838 10834 10831 10828 10826 10826 10826 10826 10828 10829 10832 10835 10838 10841 10847 10853 10857 10861 10866 10870 10875 10880 10883 10886 10890 10894 10900 10905 10910 10916 10921 10926 10930 10933 10938 10943 10948 10955 10961 10967 10973 10979 10984 10989 10995 10998 11001 11002 11001 11003 11008 11010 11012 11013 11013 11013 11014 11014 11015 11016 11017 11019 11021 11022 11023 11025 11026 11026 11027 11027 11027 11026 11026 11025 11024 11023
10874 10872 10869 10866 10862 10859 10855 10851 10847 10842 10837 10832 10827 10823 10820 10817 10815 10814 10814 10815 10816 10818 10821 10824 10827 10831 10837 10842 10847 10852 10857 10862 10868 10872 10876 10880 10884 10888 10893 10898 10904 10909 10915 10920 10924 10929 10934 10939 10945 10951 10957 10963 10968 10974 10980 10985 10990 10994 10998 10998 10997 11002 11006 11008 11010 11011 11010 11011 11012 11013 11014 11015 11016 11018 11019 11020 11022 11024 11025 11026 11026 11026 11027 11026 11026 11025 11024 11024
10869 10866 10863 10859 10856 10852 10847 10843 10838 10833 10827 10822 10816 10812 10808 10805 10803 10802 10802 10802 10804 10807 10809 10812 10816 10820 10826 10831 10836 10842 10849 10854 10859 10863 10869 10873 10877 10882 10886 10891 10897 10902 10908 10914 10919 10924 10930 10935 10941 10946 10952 10959 10964 10969 10975 10980 10985 10990 10994 10994 10994 10999 11003 11005 11009 11010 11010 11010 11010 11012 11013 11014 11015 11016 11018 11019 11021 11022 11024 11025 11025 11026 11026 11026 11026 11026 11025 11024
10864 10861 10857 10853 10849 10845 10840 10835 10829 10823 10818 10812 10807 10801 10797 10794 10792 10790 10790 10790 10792 10794 10797 10800 10804 10810 10816 10821 10827 10834 10840 10844 10849 10855 10861 10866 10870 10875 10879 10885 10891 10896 10902 10908 10914 10919 10924 10929 10934 10942 10950 10956 10961 10965 10969 10974 10979 10985 10989 10989 10990 10996 11000 11002 11005 11008 11008 11008 11008 11010 11012 11013 11014 11015 11017 11018 11020 11021 11022 11023 11024 11025 11026 11026 11026 11026 11025 11025
10859 10855 10851 10847 10842 10837 10832 10826 10821 10814 10808 10802 10797 10791 10786 10783 10780 10778 10777 10778 10779 10781 10784 10788 10793 10799 10805 10810 10816 10823 10828 10834 10841 10847 10852 10859 10863 10868 10873 10879 10884 10890 10896 10902 10908 10913 10918 10924 10930 10939 10946 10951 10956 10960 10964 10969 10976 10981 10983 10983 10985 10991 10996 10998 11001 11004 11005 11006 11007 11009 11010 11013 11014 11015 11016 11017 11019 11020 11021 11023 11023 11024 11025 11026 11026 11026 11025 11025
10854 10850 10845 10840 10835 10830 10825 10818 10812 10806 10799 10793 10787 10781 10776 10772 10768 10766 10766 10766 10766 10769 10772 10776 10781 10787 10792 10798 10805 10812 10818 10825 10832 10838 10845 10851 10856 10861 10867 10872 10877 10883 10889 10896 10902 10906 10912 10919 10926 10932 10936 10941 10948 10953 10960 10967 10971 10975 10978 10978 10981 10986 10991 10994 10998 11000 11002 11004 11006 11008 11010 11012 11013 11014 11016 11017 11018 11019 11021 11022 11022 11023 11025 11025 11026 11026 11025 11025
10848 10844 10839 10834 10829 10823 10817 10811 10804 10797 10791 10784 10777 10772 10767 10762 10758 10755 10754 10754 10755 10757 10760 10764 10769 10775 10781 10788 10795 10802 10809 10815 10823 10830 10836 10842 10848 10853 10859 10865 10871 10876 10883 10890 10895 10900 10907 10915 10920 10923 10927 10934 10941 10949 10957 10961 10965 10969 10972 10974 10977 10982 10987 10990 10993 10997 10999 11003 11005 11007 11011 11012 11011 11013 11015 11016 11016 11017 11019 11020 11021 11022 11023 11025 11025 11025 11025 11025
10843 10838 10833 10828 10822 10817 10810 10804 10797 10790 10783 10776 10769 10763 10758 10753 10749 10746 10745 10744 10745 10746 10749 10753 10758 10764 10771 10779 10786 10793 10799 10806 10814 10819 10826 10834 10840 10845 10852 10859 10864 10869 10876 10883 10889 10894 10901 10908 10912 10915 10922 10932 10940 10947 10951 10954 10960 10965 10967 10970 10972 10977 10983 10986 10990 10994 10997 11001 11003 11006 11010 11011 11011 11012 11015 11015 11014 11015 11017 11019 11020 11021 11022 11023 11024 11025 11025 11025
10837 10833 10828 10822 10816 10810 10804 10797 10790 10783 10775 10768 10761 10755 10749 10744 10741 10738 10736 10736 10736 10737 10739 10743 10748 10754 10761 10768 10776 10782 10789 10798 10804 10811 10819 10825 10831 10839 10846 10852 10856 10863 10870 10877 10882 10887 10892 10898 10901 10908 10918 10928 10933 10936 10939 10946 10955 10959 10962 10966 10968 10973 10979 10983 10987 10991 10994 10999 11002 11003 11007 11009 11009 11010 11012 11013 11013 11013 11014 11016 11019 11020 11021 11022 11023 11024 11024 11024
10832 10827 10822 10816 10810 10804 10797 10791 10784 10776 10769 10761 10754 10747 10741 10737 10734 10731 10729 10728 10728 10729 10731 10734 10739 10744 10751 10758 10765 10772 10781 10789 10796 10804 10812 10817 10825 10832 10836 10842 10848 10855 10863 10869 10874 10879 10884 10888 10892 10903 10914 10919 10922 10927 10935 10943 10949 10953 10957 10961 10964 10969 10975 10978 10984 10988 10990 10995 10999 11000 11002 11005 11006 11007 11009 11011 11012 11012 11012 11013 11016 11018 11019 11020 11022 11023 11023 11023
10826 10821 10816 10810 10804 10798 10791 10785 10777 10770 10762 10755 10748 10741 10734 10730 10727 10725 10723 10722 10722 10723 10724 10727 10731 10735 10742 10749 10756 10765 10774 10781 10789 10798 10805 10812 10819 10822 10827 10835 10842 10849 10857 10861 10865 10871 10877 10882 10891 10904 10909 10910 10916 10925 10932 10939 10943 10948 10951 10955 10959 10965 10969 10973 10981 10986 10988 10991 10994 10996 10998 11001 11003 11005 11007 11007 11009 11010 11010 11011 11013 11015 11017 11018 11020 11021 11022 11022
10821 10816 10810 10804 10798 10792 10785 10778 10771 10764 10757 10749 10742 10735 10729 10724 10722 10720 10718 10717 10717 10717 10718 10720 10724 10728 10734 10740 10747 10755 10762 10770 10780 10788 10796 10803 10809 10816 10825 10831 10836 10844 10849 10853 10859 10865 10870 10878 10889 10897 10899 10904 10913 10921 10926 10933 10938 10939 10941 10947 10956 10962 10966 10970 10978 10983 10984 10986 10988 10991 10995 10999 11001 11002 11003 11004 11005 11006 11007 11009 11011 11013 11015 11016 11017 11019 11020 11021
10816 10811 10805 10799 10792 10786 10779 10772 10765 10758 10751 10744 10736 10730 10724 10720 10717 10715 10714 10713 10712 10713 10713 10715 10718 10721 10726 10731 10738 10745 10753 10763 10771 10777 10786 10794 10801 10810 10816 10821 10829 10836 10842 10849 10855 10859 10867 10877 10883 10887 10893 10901 10909 10913 10919 10926 10929 10930 10938 10948 10953 10959 10963 10968 10974 10978 10977 10979 10983 10987 10992 10997 10998 10998 10999 11001 11002 11003 11004 11006 11008 11010 11012 11013 11015 11017 11018 11020
10811 10806 10800 10794 10787 10780 10773 10766 10760 10753 10746 10739 10732 10725 10719 10716 10713 10711 10710 10709 10709 10709 10709 10710 10712 10715 10719 10724 10732 10740 10748 10756 10762 10770 10779 10786 10793 10800 10805 10813 10822 10830 10837 10844 10847 10853 10865 10872 10873 10878 10888 10896 10902 10907 10913 10919 10922 10928 10939 10945 10947 10953 10958 10962 10967 10969 10971 10975 10979 10982 10987 10991 10993 10995 10997 10998 10999 11000 11001 11003 11005 11007 11009 11011 11012 11014 11016 11017
10806 10801 10795 10789 10782 10775 10768 10761 10754 10748 10741 10734 10727 10720 10715 10712 10709 10708 10707 10706 10705 10705 10706 10706 10708 10710 10714 10719 10725 10732 10739 10746 10755 10765 10772 10779 10787 10793 10801 10810 10818 10825 10833 10836 10839 10847 10856 10858 10862 10873 10882 10888 10895 10901 10906 10912 10917 10926 10934 10936 10941 10948 10952 10955 10959 10963 10967 10972 10975 10978 10982 10986 10988 10991 10993 10993 10995 10996 10998 11000 11003 11005 11006 11008 11010 11011 11013 11015
10801 10796 10790 10784 10777 10770 10763 10756 10749 10742 10736 10730 10723 10716 10711 10708 10706 10704 10703 10703 10703 10702 10702 10703 10704 10706 10709 10714 10719 10724 10732 10741 10750 10758 10765 10775 10781 10787 10797 10804 10811 10820 10825 10827 10832 10843 10852 10856 10864 10874 10878 10884 10890 10895 10903 10909 10915 10925 10930 10933 10939 10944 10947 10951 10955 10958 10962 10965 10969 10975 10979 10982 10984 10986 10989 10990 10992 10993 10995 10997 10999 11002 11003 11004 11007 11008 11010 11012
10797 10791 10785 10779 10772 10765 10758 10751 10744 10737 10731 10725 10719 10713 10708 10705 10702 10701 10700 10700 10700 10700 10700 10700 10701 10703 10705 10709 10714 10719 10727 10735 10742 10749 10758 10766 10772 10781 10792 10798 10805 10812 10815 10819 10828 10843 10853 10855 10860 10866 10871 10879 10886 10894 10904 10907 10913 10922 10924 10926 10933 10939 10943 10947 10950 10953 10955 10959 10964 10971 10977 10981 10981 10982 10984 10986 10989 10991 10992 10994 10996 10999 11000 11002 11004 11006 11008 11009
10792 10786 10780 10773 10767 10760 10753 10747 10740 10732 10726 10720 10715 10709 10705 10702 10700 10698 10698 10698 10698 10697 10698 10698 10698 10700 10702 10705 10709 10715 10722 10727 10733 10742 10751 10758 10766 10775 10782 10787 10794 10799 10803 10811 10824 10838 10842 10840 10847 10855 10862 10872 10879 10888 10895 10897 10907 10914 10913 10919 10928 10931 10936 10940 10944 10948 10950 10953 10960 10966 10972 10976 10976 10978 10981 10984 10987 10988 10989 10991 10993 10995 10997 10999 11002 11003 11005 11007
10787 10781 10775 10768 10762 10755 10749 10742 10736 10729 10722 10716 10710 10705 10701 10699 10697 10696 10695 10695 10695 10695 10696 10696 10696 10698 10699 10702 10706 10710 10715 10720 10727 10735 10744 10752 10761 10768 10772 10778 10787 10793 10798 10806 10817 10826 10826 10830 10842 10849 10856 10865 10870 10877 10880 10885 10897 10901 10903 10914 10922 10924 10929 10933 10938 10941 10943 10948 10956 10961 10966 10969 10971 10974 10977 10981 10984 10985 10986 10989 10991 10992 10994 10997 10999 11001 11002 11004
10782 10776 10770 10763 10757 10751 10744 10738 10732 10725 10718 10712 10707 10702 10699 10696 10694 10693 10693 10693 10693 10693 10694 10694 10694 10695 10697 10699 10703 10706 10710 10715 10723 10730 10738 10745 10752 10758 10765 10773 10784 10789 10793 10801 10809 10815 10819 10826 10836 10841 10848 10857 10862 10867 10871 10879 10891 10894 10897 10907 10913 10917 10922 10926 10929 10932 10936 10942 10949 10954 10958 10964 10970 10974 10976 10978 10980 10982 10984 10987 10989 10990 10992 10994 10996 10998 10999 11001
10778 10771 10764 10758 10752 10746 10740 10734 10727 10721 10714 10708 10702 10698 10696 10694 10692 10691 10691 10691 10691 10691 10692 10692 10692 10693 10694 10696 10699 10703 10707 10713 10718 10725 10732 10739 10745 10750 10756 10764 10770 10773 10780 10792 10802 10810 10815 10818 10824 10831 10839 10847 10853 10858 10864 10875 10885 10888 10892 10901 10906 10911 10915 10918 10922 10926 10932 10938 10944 10950 10955 10961 10968 10972 10974 10975 10977 10979 10981 10983 10986 10987 10989 10990 10992 10995 10997 10999
10773 10766 10759 10753 10747 10741 10735 10729 10723 10716 10710 10704 10699 10693 10691 10690 10689 10689 10689 10689 10689 10690 10690 10690 10690 10691 10692 10694 10696 10700 10704 10708 10713 10718 10724 10731 10736 10740 10745 10753 10759 10764 10776 10786 10791 10800 10805 10807 10819 10832 10838 10844 10849 10852 10860 10869 10873 10877 10886 10896 10900 10902 10906 10912 10917 10922 10928 10933 10940 10947 10951 10956 10961 10964 10966 10969 10971 10974 10976 10980 10983 10985 10987 10988 10988 10991 10994 10996
10768 10761 10754 10749 10743 10737 10731 10725 10718 10712 10706 10700 10695 10690 10687 10686 10686 10686 10686 10687 10687 10688 10688 10688 10689 10690 10690 10692 10694 10696 10700 10704 10707 10711 10716 10721 10726 10733 10742 10752 10759 10767 10778 10782 10786 10795 10797 10800 10815 10826 10829 10837 10840 10844 10854 10859 10862 10871 10880 10885 10886 10891 10898 10905 10910 10917 10923 10928 10935 10940 10943 10948 10953 10956 10959 10962 10965 10968 10972 10976 10978 10982 10985 10985 10985 10988 10990 10993
10764 10757 10750 10744 10738 10732 10726 10720 10714 10707 10702 10696 10692 10688 10684 10682 10683 10683 10683 10685 10685 10686 10687 10687 10687 10688 10688 10690 10691 10694 10696 10698 10701 10704 10708 10713 10718 10727 10738 10747 10754 10762 10770 10774 10780 10791 10794 10799 10814 10820 10823 10829 10832 10838 10848 10851 10857 10865 10869 10873 10879 10885 10893 10898 10904 10911 10915 10921 10928 10933 10936 10942 10946 10950 10954 10955 10957 10962 10966 10969 10972 10977 10982 10982 10983 10985 10987 10989
10760 10752 10746 10740 10734 10728 10722 10716 10710 10703 10697 10692 10688 10684 10681 10679 10679 10680 10681 10682 10683 10684 10685 10685 10686 10686 10687 10689 10691 10692 10693 10694 10697 10699 10703 10707 10713 10722 10731 10739 10746 10753 10760 10765 10772 10784 10788 10795 10809 10814 10816 10823 10828 10835 10843 10846 10850 10856 10862 10873 10880 10885 10890 10894 10900 10905 10909 10915 10921 10926 10930 10935 10939 10944 10947 10948 10952 10956 10960 10963 10967 10972 10977 10979 10981 10982 10983 10985
10755 10749 10742 10736 10729 10723 10717 10712 10706 10698 10692 10688 10684 10681 10678 10677 10676 10677 10678 10679 10680 10682 10683 10683 10684 10684 10686 10687 10689 10690 10690 10691 10693 10696 10700 10705 10710 10717 10725 10732 10740 10747 10755 10761 10770 10780 10782 10786 10799 10805 10809 10819 10826 10831 10837 10840 10843 10849 10859 10867 10871 10876 10882 10888 10894 10898 10902 10909 10915 10919 10924 10929 10934 10939 10941 10944 10950 10954 10956 10959 10963 10968 10973 10976 10978 10978 10978 10978
10751 10744 10738 10731 10725 10718 10712 10707 10702 10695 10688 10683 10680 10677 10675 10674 10674 10674 10675 10676 10677 10679 10680 10680 10682 10682 10684 10685 10686 10688 10688 10688 10690 10694 10699 10703 10707 10712 10718 10725 10733 10741 10749 10756 10763 10770 10772 10778 10790 10798 10804 10813 10818 10821 10827 10829 10833 10843 10852 10856 10859 10865 10872 10878 10884 10889 10895 10903 10908 10912 10918 10924 10931 10935 10937 10941 10945 10948 10950 10954 10959 10963 10967 10968 10970 10972 10971 10972
10746 10739 10733 10727 10720 10713 10707 10702 10697 10690 10684 10680 10676 10674 10672 10671 10671 10671 10672 10673 10674 10675 10676 10678 10679 10680 10680 10682 10684 10685 10685 10686 10688 10690 10694 10698 10701 10707 10713 10720 10727 10735 10742 10746 10753 10761 10766 10774 10786 10793 10797 10801 10804 10809 10816 10821 10830 10841 10846 10848 10853 10861 10867 10872 10876 10881 10888 10894 10899 10904 10911 10918 10923 10926 10928 10931 10937 10941 10945 10951 10955 10958 10960 10961 10962 10965 10967 10969
10742 10735 10728 10722 10715 10709 10702 10697 10692 10686 10681 10676 10673 10671 10669 10668 10668 10668 10669 10670 10671 10672 10673 10674 10676 10676 10678 10680 10681 10682 10683 10684 10685 10686 10690 10694 10697 10702 10709 10716 10722 10729 10734 10739 10749 10759 10764 10770 10780 10787 10789 10791 10798 10806 10813 10821 10831 10836 10839 10843 10850 10856 10862 10866 10870 10875 10880 10884 10889 10895 10903 10910 10915 10918 10919 10921 10928 10936 10941 10947 10953 10955 10956 10956 10957 10961 10964 10967
10737 10731 10725 10718 10711 10705 10698 10691 10687 10682 10677 10673 10670 10668 10667 10666 10665 10665 10666 10667 10668 10669 10670 10671 10673 10674 10676 10677 10678 10680 10681 10682 10682 10684 10687 10690 10693 10697 10704 10710 10716 10722 10726 10733 10743 10749 10754 10761 10770 10776 10780 10785 10795 10804 10810 10818 10826 10829 10833 10838 10843 10847 10852 10857 10862 10867 10871 10875 10881 10887 10894 10901 10906 10910 10911 10913 10920 10928 10933 10940 10945 10947 10949 10949 10949 10953 10957 10960
10732 10726 10720 10714 10707 10700 10693 10686 10681 10676 10672 10669 10666 10665 10664 10663 10662 10662 10663 10664 10665 10665 10667 10668 10670 10671 10673 10674 10675 10677 10678 10679 10680 10681 10683 10687 10690 10694 10699 10704 10709 10714 10719 10726 10732 10738 10746 10754 10761 10768 10772 10776 10785 10794 10798 10805 10814 10819 10823 10828 10830 10835 10842 10849 10854 10858 10863 10870 10878 10883 10887 10891 10896 10900 10903 10906 10913 10920 10925 10931 10935 10937 10940 10942 10942 10945 10949 10953
10727 10720 10714 10708 10701 10695 10689 10683 10677 10671 10668 10665 10663 10662 10661 10660 10659 10659 10660 10661 10662 10662 10664 10665 10666 10667 10669 10671 10672 10674 10675 10676 10677 10678 10680 10683 10687 10690 10695 10699 10702 10706 10712 10719 10727 10734 10742 10749 10754 10760 10764 10766 10776 10785 10788 10793 10801 10805 10808 10813 10819 10827 10837 10842 10846 10852 10860 10866 10871 10873 10876 10882 10890 10895 10899 10903 10908 10913 10918 10923 10926 10929 10932 10935 10936 10939 10943 10947
10723 10715 10709 10702 10696 10690 10684 10679 10674 10668 10665 10662 10660 10658 10658 10657 10656 10656 10657 10658 10659 10659 10661 10662 10663 10664 10666 10668 10669 10670 10672 10672 10673 10675 10677 10679 10683 10687 10690 10694 10697 10701 10706 10713 10721 10729 10736 10742 10747 10752 10755 10761 10772 10780 10782 10787 10794 10798 10800 10804 10812 10823 10830 10834 10840 10848 10852 10855 10857 10861 10866 10875 10883 10887 10891 10896 10901 10905 10910 10915 10918 10921 10924 10927 10930 10934 10938 10941
10718 10711 10705 10698 10691 10685 10679 10675 10670 10665 10661 10659 10657 10655 10654 10654 10653 10653 10654 10655 10656 10656 10657 10659 10659 10661 10662 10664 10666 10667 10668 10669 10670 10672 10673 10675 10679 10682 10685 10689 10692 10695 10701 10707 10713 10720 10727 10731 10736 10741 10747 10755 10765 10771 10776 10782 10789 10795 10799 10804 10813 10820 10821 10825 10832 10836 10838 10842 10848 10854 10860 10866 10872 10877 10884 10892 10896 10898 10901 10905 10910 10914 10917 10919 10922 10926 10931 10935
10714 10707 10700 10693 10687 10680 10674 10670 10667 10662 10658 10655 10653 10652 10651 10650 10650 10650 10651 10652 10653 10653 10654 10655 10656 10658 10659 10660 10662 10663 10664 10665 10666 10667 10669 10670 10674 10677 10680 10683 10686 10689 10694 10700 10706 10712 10716 10720 10726 10733 10739 10748 10756 10762 10769 10775 10781 10789 10796 10801 10808 10812 10813 10818 10822 10823 10829 10837 10842 10846 10851 10857 10864 10872 10880 10885 10886 10887 10890 10894 10899 10904 10907 10911 10915 10919 10923 10928
10710 10703 10695 10689 10683 10677 10670 10666 10662 10659 10655 10652 10650 10648 10647 10647 10647 10647 10647 10648 10649 10650 10651 10652 10653 10654 10655 10657 10658 10659 10660 10661 10662 10663 10664 10666 10668 10672 10674 10677 10681 10684 10688 10694 10699 10703 10705 10710 10717 10724 10731 10739 10746 10753 10761 10766 10771 10780 10786 10791 10797 10802 10806 10809 10811 10816 10825 10831 10833 10838 10843 10849 10859 10867 10871 10871 10870 10874 10879 10883 10887 10893 10898 10903 10907 10911 10916 10921
10706 10699 10691 10684 10678 10672 10666 10661 10658 10655 10652 10649 10646 10645 10644 10643 10643 10643 10644 10645 10646 10647 10648 10649 10649 10651 10652 10653 10654 10655 10656 10657 10657 10658 10660 10661 10663 10666 10669 10673 10676 10680 10685 10689 10692 10694 10697 10702 10709 10715 10720 10727 10735 10742 10749 10755 10762 10768 10773 10780 10787 10791 10794 10798 10803 10811 10819 10823 10826 10830 10835 10845 10855 10860 10861 10860 10860 10864 10869 10873 10878 10883 10888 10894 10898 10902 10908 10914
10700 10694 10686 10679 10673 10667 10662 10657 10653 10651 10648 10645 10643 10641 10640 10639 10639 10640 10640 10641 10642 10643 10645 10646 10646 10647 10648 10650 10651 10652 10652 10653 10653 10654 10655 10656 10658 10660 10664 10667 10670 10674 10678 10680 10682 10685 10689 10694 10700 10706 10710 10716 10725 10732 10738 10746 10751 10754 10761 10772 10777 10780 10785 10792 10799 10806 10811 10817 10821 10825 10832 10843 10847 10846 10847 10849 10851 10856 10860 10864 10870 10874 10879 10885 10889 10892 10899 10905